Location: Nashville
(36.1660°N, 86.7840°W)
Time: 07:42:11
(UTC-05:00)

AO-27 - Visible Passes

Search period start: 18 May 2022 00:00
Search period end: 28 May 2022 00:00
Orbit: 784 x 798 km, 98.9° (Epoch: 18 May)

Date Brightness Start Highest point End Pass type
(mag) Time Alt. Az. Time Alt. Az. Time Alt. Az.
18 May 9.4 20:32:45 10° SSW 20:37:22 32° W 20:42:00 10° NW visible
20 May 10.4 21:16:41 10° WSW 21:18:46 12° W 21:20:52 10° WNW visible
21 May 9.8 20:45:06 10° SSW 20:49:18 25° W 20:53:32 10° NW visible
22 May 8.7 20:14:57 10° S 20:19:57 48° W 20:25:00 10° NNW visible
24 May 10.2 20:57:37 10° SW 21:01:15 19° W 21:04:54 10° NW visible
25 May 9.2 20:27:05 10° SSW 20:31:52 37° W 20:36:40 10° NNW visible
27 May 10.3 21:10:26 10° SW 21:13:13 15° W 21:16:01 10° WNW visible
